Amsterdam, Netherlands

3:12 PM CET on February 22, 2017 (GMT +0100)
Amsterdam

Weather History for 06240 - October, 2013

Change the Weather History Date:

Friday, October 18, 2013

  Actual Average Record
Temperature  
Mean Temperature 50 °F -  
Max Temperature 56 °F 51 °F - ()
Min Temperature 45 °F 41 °F - ()
Degree Days  
Heating Degree Days 14    
Moisture  
Dew Point 51 °F    
Average Humidity 95    
Maximum Humidity 100    
Minimum Humidity 85    
Precipitation  
Precipitation 0.00 in - - ()
Sea Level Pressure  
Sea Level Pressure 30.03 in    
Wind  
Wind Speed 5 mph ()    
Max Wind Speed 11 mph    
Max Gust Speed -    
Visibility 4.2 miles    
Events Fog    
T = Trace of Precipitation, MM = Missing Value Source: Averaged Metar Reports

Daily Weather History Graph

Daily Weather History Graph

Search for Another Location

Airport or City:

Trip Planner

Search our weather history database for the weather conditions in past years. The results will help you decide how hot, cold, wet, or windy it might be!

Date:

Astronomy

Oct. 18, 2013 Rise Set
Actual Time 8:11 AM CEST 6:39 PM CEST
Civil Twilight 7:36 AM CEST 7:14 PM CEST
Nautical Twilight 6:57 AM CEST 7:53 PM CEST
Astronomical Twilight 6:17 AM CEST 8:32 PM CEST
Moon 6:18 PM CEST (10/18) 7:28 AM CEST (10/18)
Length of Visible Light 11h 37m
Length of Day
10h 28m
Full, 100% of the Moon is Illuminated
Oct 18
Full
Oct 19
Full
Oct 27
Last Quarter
Nov 3
New
Nov 10
First Quarter

Hourly Weather History & Observations

Time (CEST) Temp. Windchill Dew Point Humidity Pressure Visibility Wind Dir Wind Speed Gust Speed Precip Events Conditions
12:25 AM 48.2 °F - 46.4 °F 93% 29.98 in - SSW 5.8 mph - N/A   Clear
12:55 AM 48.2 °F - 46.4 °F 93% 30.01 in 6.2 mi SSE 3.5 mph - N/A Fog Shallow Fog
1:25 AM 46.4 °F 44.3 °F 46.4 °F 100% 30.01 in 6.2 mi South 4.6 mph - N/A Fog Shallow Fog
1:55 AM 48.2 °F - 48.2 °F 100% 30.01 in 5.6 mi South 2.3 mph - N/A Fog Fog
2:00 AM 47 °F - 46 °F 97% 30.01 in 5 mi South 2.2 mph - -   Mist
2:25 AM 46.4 °F - 46.4 °F 100% 30.01 in 5.6 mi South 2.3 mph - N/A Fog Fog
2:55 AM 48.2 °F - 48.2 °F 100% 30.01 in 5.6 mi South 2.3 mph - N/A Fog Fog
3:25 AM 48.2 °F - 48.2 °F 100% 30.01 in 5.0 mi SSE 2.3 mph - N/A Fog Fog
3:55 AM 48.2 °F - 48.2 °F 100% 30.01 in 5.0 mi Variable 2.3 mph - N/A Fog Fog
4:25 AM 48.2 °F - 48.2 °F 100% 30.01 in 5.0 mi SSW 4.6 mph - N/A Fog Fog
4:55 AM 50.0 °F - 50.0 °F 100% 30.01 in 5.6 mi South 3.5 mph - N/A Fog Shallow Fog
5:25 AM 50.0 °F - 50.0 °F 100% 30.01 in 5.0 mi SSW 6.9 mph - N/A Fog Fog
5:55 AM 51.8 °F - 51.8 °F 100% 30.01 in 5.6 mi SSW 3.5 mph - N/A Fog Shallow Fog
6:25 AM 48.2 °F - 48.2 °F 100% 30.04 in 2.2 mi SSE 2.3 mph - N/A Fog Patches of Fog
6:55 AM 50.0 °F - 50.0 °F 100% 30.04 in 2.8 mi ESE 2.3 mph - N/A Fog Patches of Fog
7:25 AM 50.0 °F - 50.0 °F 100% 30.04 in 0.6 mi SE 3.5 mph - N/A Fog Patches of Fog
7:55 AM 50.0 °F - 50.0 °F 100% 30.04 in 0.6 mi ESE 3.5 mph - N/A Fog Patches of Fog
8:00 AM 50 °F - 50 °F 100% 30.04 in 0 mi East 4.5 mph - - Fog Fog
8:25 AM 50.0 °F - 50.0 °F 100% 30.04 in 0.2 mi ESE 4.6 mph - N/A Fog Fog
8:55 AM 51.8 °F - 51.8 °F 100% 30.04 in 0.2 mi East 4.6 mph - N/A Fog Fog
9:25 AM 51.8 °F - 51.8 °F 100% 30.06 in 0.3 mi ESE 5.8 mph - N/A Fog Fog
9:55 AM 51.8 °F - 51.8 °F 100% 30.06 in 0.2 mi ESE 3.5 mph - N/A Fog Fog
10:25 AM 51.8 °F - 51.8 °F 100% 30.06 in 1.6 mi ENE 5.8 mph - N/A Fog Patches of Fog
10:55 AM 53.6 °F - 53.6 °F 100% 30.06 in 5.0 mi East 6.9 mph - N/A   Mostly Cloudy
11:00 AM 53 °F - 53 °F 99% 30.09 in 3 mi East 6.7 mph - - Fog Fog
11:25 AM 53.6 °F - 53.6 °F 100% 30.06 in 6.2 mi East 6.9 mph - N/A   Mostly Cloudy
11:55 AM 53.6 °F - 51.8 °F 94% 30.06 in 5.0 mi ESE 10.4 mph - N/A   Mostly Cloudy
12:25 PM 53.6 °F - 51.8 °F 94% 30.09 in 5.6 mi ESE 10.4 mph - N/A   Mostly Cloudy
12:55 PM 55.4 °F - 51.8 °F 88% 30.06 in 6.2 mi ESE 9.2 mph - N/A   Mostly Cloudy
1:25 PM 55.4 °F - 51.8 °F 88% 30.06 in 6.2 mi ESE 10.4 mph - N/A   Mostly Cloudy
1:55 PM 55.4 °F - 51.8 °F 88% 30.06 in 6.2 mi ESE 9.2 mph - N/A   Mostly Cloudy
2:00 PM 55 °F - 52 °F 85% 30.08 in 4 mi SE 11.2 mph - -   Mist
2:25 PM 55.4 °F - 53.6 °F 94% 30.06 in 5.0 mi ESE 8.1 mph - N/A   Mostly Cloudy
2:55 PM 55.4 °F - 51.8 °F 88% 30.06 in 4.3 mi SE 10.4 mph - N/A   Mostly Cloudy
3:25 PM 55.4 °F - 53.6 °F 94% 30.06 in 4.3 mi ESE 8.1 mph - N/A   Overcast
3:55 PM 55.4 °F - 51.8 °F 88% 30.06 in 4.3 mi ESE 9.2 mph - N/A   Overcast
4:25 PM 55.4 °F - 51.8 °F 88% 30.04 in 4.3 mi ESE 9.2 mph - N/A   Overcast
4:55 PM 55.4 °F - 53.6 °F 94% 30.04 in 4.3 mi SE 8.1 mph - N/A   Overcast
5:00 PM 55 °F - 53 °F 89% 30.06 in 4 mi SSE 8.9 mph - -   Mist
5:25 PM 55.4 °F - 51.8 °F 88% 30.04 in 3.7 mi SE 8.1 mph - N/A   Overcast
5:55 PM 55.4 °F - 51.8 °F 88% 30.04 in 4.3 mi ESE 6.9 mph - N/A   Overcast
6:25 PM 55.4 °F - 51.8 °F 88% 30.04 in 4.3 mi SE 5.8 mph - N/A   Overcast
6:55 PM 55.4 °F - 51.8 °F 88% 30.04 in 4.3 mi ESE 5.8 mph - N/A   Mostly Cloudy
7:25 PM 51.8 °F - 50.0 °F 94% 30.04 in 4.3 mi East 5.8 mph - N/A   Partly Cloudy
7:55 PM 51.8 °F - 50.0 °F 94% 30.04 in 4.3 mi East 5.8 mph - N/A   Unknown
8:00 PM 52 °F - 51 °F 95% 30.04 in 4 mi East 6.7 mph - -   Mist
8:25 PM 53.6 °F - 51.8 °F 94% 30.04 in 4.3 mi East 6.9 mph - N/A   Unknown
8:55 PM 53.6 °F - 51.8 °F 94% 30.01 in 4.3 mi East 10.4 mph - N/A   Unknown
9:25 PM 53.6 °F - 50.0 °F 88% 30.01 in 5.0 mi East 10.4 mph - N/A   Unknown
9:55 PM 53.6 °F - 50.0 °F 88% 30.01 in 5.0 mi ESE 10.4 mph - N/A   Unknown
10:25 PM 51.8 °F - 50.0 °F 94% 30.01 in 5.0 mi East 8.1 mph - N/A   Unknown
10:55 PM 51.8 °F - 50.0 °F 94% 30.01 in 5.0 mi East 8.1 mph - N/A   Scattered Clouds
11:00 PM 52 °F - 50 °F 89% 30.01 in 5 mi East 8.9 mph - -   Mist
11:25 PM 51.8 °F - 50.0 °F 94% 29.98 in 5.0 mi East 9.2 mph - N/A   Partly Cloudy
11:55 PM 51.8 °F - 48.2 °F 88% 29.98 in 5.0 mi East 10.4 mph - N/A   Unknown